TimeEET,TemperatureF,Dew PointF,Humidity,Sea Level PressureIn,VisibilityMPH,Wind Direction,Wind SpeedMPH,Gust SpeedMPH,PrecipitationIn,Events,Conditions,WindDirDegrees,DateUTC
12:20 AM,57.2,48.2,72,30.18,6.2,NNE,10.4,-,N/A,,Mostly Cloudy,20,2012-11-21 22:20:00
12:50 AM,57.2,48.2,72,30.15,6.2,Variable,10.4,-,N/A,,Mostly Cloudy,0,2012-11-21 22:50:00
1:20 AM,57.2,48.2,72,30.15,6.2,NNE,9.2,-,N/A,,Mostly Cloudy,30,2012-11-21 23:20:00
1:50 AM,57.2,48.2,72,30.15,6.2,NNE,10.4,-,N/A,,Mostly Cloudy,30,2012-11-21 23:50:00
2:00 AM,57,48,62,30.17,6,NNE,10.4,,,,Partly Cloudy,30,2012-11-22 00:00:00
2:20 AM,57.2,48.2,72,30.15,6.2,NNE,10.4,-,N/A,,Mostly Cloudy,30,2012-11-22 00:20:00
2:50 AM,57.2,48.2,72,30.15,6.2,NNE,11.5,-,N/A,,Mostly Cloudy,20,2012-11-22 00:50:00
3:20 AM,57.2,48.2,72,30.15,6.2,NNE,8.1,-,N/A,,Mostly Cloudy,30,2012-11-22 01:20:00
3:50 AM,57.2,48.2,72,30.15,6.2,NNE,9.2,-,N/A,,Mostly Cloudy,30,2012-11-22 01:50:00
4:20 AM,57.2,50.0,77,30.15,6.2,NNE,8.1,-,N/A,,Mostly Cloudy,20,2012-11-22 02:20:00
4:50 AM,57.2,50.0,77,30.15,6.2,NNE,9.2,-,N/A,,Mostly Cloudy,20,2012-11-22 02:50:00
5:20 AM,57.2,50.0,77,30.15,6.2,NNE,9.2,-,N/A,,Mostly Cloudy,30,2012-11-22 03:20:00
5:50 AM,57.2,50.0,77,30.15,6.2,NNE,9.2,-,N/A,,Mostly Cloudy,30,2012-11-22 03:50:00
6:20 AM,55.4,51.8,88,30.15,6.2,NNE,11.5,-,N/A,Rain,Light Rain Showers,30,2012-11-22 04:20:00
6:50 AM,55.4,50.0,82,30.15,6.2,NNE,13.8,-,N/A,Rain,Light Rain Showers,20,2012-11-22 04:50:00
7:20 AM,55.4,51.8,88,30.15,6.2,NNE,12.7,-,N/A,Rain,Light Rain Showers,20,2012-11-22 05:20:00
7:50 AM,55.4,53.6,94,30.18,6.2,North,13.8,-,N/A,Rain,Light Rain Showers,10,2012-11-22 05:50:00
8:00 AM,54,53,93,30.18,6,North,13.8,,,Rain,Light Rain Showers,10,2012-11-22 06:00:00
8:20 AM,53.6,51.8,94,30.18,6.2,North,12.7,-,N/A,Rain,Light Rain Showers,350,2012-11-22 06:20:00
8:50 AM,55.4,50.0,82,30.18,6.2,North,12.7,-,N/A,Rain,Light Rain Showers,10,2012-11-22 06:50:00
9:20 AM,53.6,51.8,94,30.18,4.3,North,17.3,-,N/A,Rain,Light Rain Showers,360,2012-11-22 07:20:00
9:50 AM,53.6,53.6,100,30.18,3.7,North,13.8,-,N/A,Rain,Light Rain Showers,350,2012-11-22 07:50:00
10:20 AM,55.4,53.6,94,30.18,3.7,NNE,13.8,-,N/A,Rain,Light Rain Showers,20,2012-11-22 08:20:00
10:50 AM,55.4,53.6,94,30.18,6.2,North,11.5,-,N/A,Rain,Light Rain Showers,10,2012-11-22 08:50:00
11:20 AM,55.4,53.6,94,30.18,6.2,North,15.0,-,N/A,,Mostly Cloudy,10,2012-11-22 09:20:00
11:50 AM,55.4,51.8,88,30.15,4.3,North,17.3,-,N/A,,Mostly Cloudy,10,2012-11-22 09:50:00
12:20 PM,57.2,51.8,82,30.15,6.2,North,16.1,-,N/A,,Mostly Cloudy,10,2012-11-22 10:20:00
12:50 PM,55.4,51.8,88,30.18,6.2,NNE,17.3,-,N/A,,Mostly Cloudy,20,2012-11-22 10:50:00
1:20 PM,53.6,51.8,94,30.18,3.7,North,18.4,-,N/A,Rain,Light Rain Showers,10,2012-11-22 11:20:00
1:50 PM,55.4,51.8,88,30.15,4.3,North,18.4,-,N/A,Rain,Light Rain Showers,10,2012-11-22 11:50:00
2:00 PM,55,52,85,30.18,12,North,18.4,,,Rain,Light Rain Showers,10,2012-11-22 12:00:00
2:20 PM,55.4,50.0,82,30.18,3.7,North,17.3,-,N/A,Rain,Light Rain Showers,10,2012-11-22 12:20:00
2:50 PM,55.4,48.2,77,30.18,6.2,North,18.4,-,N/A,,Mostly Cloudy,360,2012-11-22 12:50:00
3:20 PM,55.4,48.2,77,30.18,6.2,North,16.1,-,N/A,,Mostly Cloudy,10,2012-11-22 13:20:00
3:50 PM,55.4,48.2,77,30.18,6.2,North,15.0,-,N/A,,Mostly Cloudy,360,2012-11-22 13:50:00
4:20 PM,57.2,48.2,72,30.18,6.2,North,10.4,-,N/A,,Mostly Cloudy,10,2012-11-22 14:20:00
4:50 PM,57.2,48.2,72,30.18,6.2,NNE,12.7,-,N/A,,Mostly Cloudy,20,2012-11-22 14:50:00
5:20 PM,55.4,46.4,72,30.18,6.2,North,13.8,-,N/A,,Mostly Cloudy,10,2012-11-22 15:20:00
5:50 PM,55.4,46.4,72,30.18,6.2,North,16.1,-,N/A,,Mostly Cloudy,10,2012-11-22 15:50:00
6:20 PM,55.4,46.4,72,30.21,6.2,North,16.1,-,N/A,,Mostly Cloudy,10,2012-11-22 16:20:00
6:50 PM,55.4,46.4,72,30.18,6.2,North,13.8,-,N/A,,Mostly Cloudy,360,2012-11-22 16:50:00
7:20 PM,55.4,48.2,77,30.21,6.2,North,15.0,-,N/A,,Mostly Cloudy,10,2012-11-22 17:20:00
7:50 PM,55.4,46.4,72,30.18,6.2,North,18.4,-,N/A,,Mostly Cloudy,10,2012-11-22 17:50:00
8:00 PM,55,46,62,30.21,12,North,18.4,,,,Partly Cloudy,10,2012-11-22 18:00:00
8:20 PM,55.4,44.6,67,30.21,6.2,North,13.8,-,N/A,,Mostly Cloudy,10,2012-11-22 18:20:00
8:50 PM,57.2,44.6,63,30.21,6.2,NNE,12.7,-,N/A,,Mostly Cloudy,20,2012-11-22 18:50:00
9:20 PM,55.4,44.6,67,30.21,6.2,North,11.5,-,N/A,,Mostly Cloudy,10,2012-11-22 19:20:00
9:50 PM,55.4,44.6,67,30.21,6.2,North,13.8,-,N/A,,Mostly Cloudy,10,2012-11-22 19:50:00
10:20 PM,55.4,44.6,67,30.21,6.2,NNE,11.5,-,N/A,,Mostly Cloudy,20,2012-11-22 20:20:00
10:50 PM,55.4,44.6,67,30.21,6.2,NNE,11.5,-,N/A,,Mostly Cloudy,20,2012-11-22 20:50:00
11:20 PM,55.4,44.6,67,30.21,6.2,North,12.7,-,N/A,,Mostly Cloudy,10,2012-11-22 21:20:00
11:50 PM,55.4,44.6,67,30.21,6.2,North,11.5,-,N/A,,Mostly Cloudy,10,2012-11-22 21:50:00